DELTA 1 DEB, 21464

Orbit data source: Space-Track

DELTA 1 DEB, 21464 is space debris in SSO originally from a launch on Thu, 12 Jun 1975 UTC launched from the Air Force Western Test Range (AFWTR). Debris objects in space refer to the collection of defunct objects orbiting the Earth. Examples of debris include non-operational satellites, rocket bodies, and fragments generated from explosions, collisions, or faulty payload assembly.

Loading next visibility...
Identifier
21464, 1975-052EY
Orbit
SSO
Country
Flag of USUS
Related business
Manufacturer
Unknown
Mission
Spacecraft
Bus & Motor
Unknown
Mass
Unknown
Launch date (UTC)
1975-06-12 (50 years ago)
Launch vehicle
Unknown
Launch site
Air Force Western Test Range (AFWTR)
Object type
Payload
Rocket body
Debris
Shape & HBR
Unknown shape, 0.1 m
Radar Cross Section
Small (<0.1 m²)

Expand to show TLE details & history
Last TLE update: 20 hours ago

TLE from 20 hours ago
0 DELTA 1 DEB
1 21464U 75052EY  25287.31724098  .00002261  00000-0  53617-2 0  9999
2 21464  99.7900 222.3147 0204680 261.3947 255.5264 13.17134562629072
Epoch: 2025-10-14T07:36Z
TLE epoch observation values (Epoch: 2025-10-14T07:36:49.620Z)
Latitude
24.96828°
Longitude
-90.41428°
Altitude
1,240.258 km
Speed
7.217 km/s
True Right ascension
03h 07m 35s
True Declination
24° 50' 43"
Sunlit
Object was in full shadow at epoch
Visualization orbit readout
Latitude
Unknown
Longitude
Unknown
Altitude
Unknown
Speed
Unknown
Apparent Right ascension
Unknown
Apparent Declination
Unknown
Sunlit
N/A
Visualization observer readout
Local Sidereal Time
22:42:07
Azimuth
Unknown
Elevation
Unknown
Doppler factor
Unknown
Orbital elements
Apogee altitude
1,348 km
Perigee altitude
1,038.066 km
Semi-major axis
7,571.17 km
Eccentricity
0.02047
Inclination
99.79°
RAAN
222.3147°
Arg. of periapsis
261.3947°
True anomaly
253.27039°
Mean anomaly
255.5264°
Eccentric anomaly
254.39689°
Mean motion
3.29457 °/min
Orbital period
109.27 mins
BSTAR
0.0053617
Loading maneuver chart data...
Computing Atmospheric mass density...

Documentation

Showing up to 5 results
|